Location: Gagetown
(45.7834°N, 66.1486°W)
Time: 02:49:02
(UTC+00:00)

X-37B - Visible Passes

Search period start: 18 June 2021 00:00
Search period end: 28 June 2021 00:00
Orbit: 386 x 389 km, 45.0° (Epoch: 10 June)

Date Brightness Start Highest point End Pass type
(mag) Time Alt. Az. Time Alt. Az. Time Alt. Az.
18 Jun 1.7 05:25:08 33° E 05:25:08 33° E 05:27:06 10° E visible
18 Jun 0.5 06:57:24 10° W 07:00:32 76° S 07:03:43 10° E visible
19 Jun 0.4 06:01:26 49° WSW 06:02:11 80° S 06:05:21 10° E visible
19 Jun 0.8 07:35:38 10° W 07:38:43 47° SSW 07:41:47 10° ESE visible
20 Jun 2.4 05:05:38 23° E 05:05:38 23° E 05:07:00 10° E visible
20 Jun 0.5 06:37:56 15° W 06:40:24 63° SSW 06:43:33 10° ESE visible
21 Jun 0.7 05:42:30 61° ESE 05:42:30 61° ESE 05:45:14 10° E visible
21 Jun 1.3 07:15:37 10° W 07:18:30 32° SSW 07:21:23 10° SE visible
22 Jun 0.7 06:20:14 47° SSW 06:20:14 47° SSW 06:23:18 10° ESE visible
22 Jun 2.5 07:54:46 10° WSW 07:56:23 13° SW 07:57:59 10° S visible
23 Jun 1.4 02:06:06 10° SW 02:08:47 30° SSE 02:08:47 30° SSE visible
23 Jun 2.5 06:59:41 16° S 06:59:41 16° S 07:00:42 10° SSE visible
24 Jun 2.0 01:08:20 10° SSW 01:10:44 20° SSE 01:13:09 10° E visible
24 Jun 0.5 02:43:53 10° WSW 02:47:01 61° SSE 02:47:13 59° SE visible
25 Jun 0.9 01:45:40 10° SW 01:48:43 44° SSE 01:51:46 10° E visible
25 Jun 1.2 03:22:03 10° W 03:24:24 45° WSW 03:24:24 45° WSW visible
26 Jun 0.4 02:23:42 10° WSW 02:26:54 74° S 02:28:44 23° E visible
26 Jun 3.0 04:00:19 10° W 04:01:00 15° W 04:01:00 15° W visible
27 Jun 0.6 01:25:24 10° WSW 01:28:33 61° SSE 01:31:42 10° E visible
27 Jun 0.4 03:01:57 10° W 03:05:06 75° SSW 03:05:06 75° SSW visible
